Time,TemperatureF,DewpointF,PressureIn,WindDirection,WindDirectionDegrees,WindSpeedMPH,WindSpeedGustMPH,Humidity,HourlyPrecipIn,Conditions,Clouds,dailyrainin,SoftwareType,DateUTC
2013-01-05 00:00:00,31.7,23.0,29.88,West,270,3.0,6.5,66,0.00,,,0.00,Rainwise IP-100,2013-01-05 05:00:00,
2013-01-05 00:05:00,31.6,23.0,29.88,SW,225,5.4,9.8,66,0.00,,,0.00,Rainwise IP-100,2013-01-05 05:05:00,
2013-01-05 00:10:00,31.6,23.0,29.88,WSW,247,5.4,7.5,67,0.00,,,0.00,Rainwise IP-100,2013-01-05 05:10:00,
2013-01-05 00:15:00,31.5,23.0,29.88,SSW,202,2.8,7.5,67,0.00,,,0.00,Rainwise IP-100,2013-01-05 05:15:00,
2013-01-05 00:20:00,31.4,21.0,29.88,SSW,202,4.2,6.1,67,0.00,,,0.00,Rainwise IP-100,2013-01-05 05:20:00,
2013-01-05 00:25:00,31.5,23.0,29.88,WSW,247,4.2,11.7,66,0.00,,,0.00,Rainwise IP-100,2013-01-05 05:25:00,
2013-01-05 00:30:00,31.6,23.0,29.88,West,270,3.0,9.1,66,0.00,,,0.00,Rainwise IP-100,2013-01-05 05:30:00,
2013-01-05 00:35:00,31.4,21.0,29.88,SW,225,3.3,8.9,66,0.00,,,0.00,Rainwise IP-100,2013-01-05 05:35:00,
2013-01-05 00:40:00,31.4,21.0,29.88,SW,225,3.7,7.2,66,0.00,,,0.00,Rainwise IP-100,2013-01-05 05:40:00,
2013-01-05 00:45:00,31.4,21.0,29.88,SW,225,1.9,9.6,66,0.00,,,0.00,Rainwise IP-100,2013-01-05 05:45:00,
2013-01-05 00:50:00,31.3,21.0,29.88,WSW,247,6.5,8.9,66,0.00,,,0.00,Rainwise IP-100,2013-01-05 05:50:00,
2013-01-05 00:55:00,31.3,21.0,29.88,WSW,247,4.4,9.8,66,0.00,,,0.00,Rainwise IP-100,2013-01-05 05:55:00,
2013-01-05 01:00:00,31.3,21.0,29.88,WSW,247,5.6,8.4,66,0.00,,,0.00,Rainwise IP-100,2013-01-05 06:00:00,
2013-01-05 01:05:00,31.3,21.0,29.88,WSW,247,3.3,11.0,66,0.00,,,0.00,Rainwise IP-100,2013-01-05 06:05:00,
2013-01-05 01:10:00,31.4,21.0,29.89,SW,225,4.0,9.8,66,0.00,,,0.00,Rainwise IP-100,2013-01-05 06:10:00,
2013-01-05 01:15:00,31.3,21.0,29.89,SW,225,3.3,12.1,66,0.00,,,0.00,Rainwise IP-100,2013-01-05 06:15:00,
2013-01-05 01:20:00,31.2,21.0,29.89,WSW,247,5.4,9.6,66,0.00,,,0.00,Rainwise IP-100,2013-01-05 06:20:00,
2013-01-05 01:25:00,31.2,21.0,29.89,WSW,247,8.6,9.3,66,0.00,,,0.00,Rainwise IP-100,2013-01-05 06:25:00,
2013-01-05 01:30:00,31.2,21.0,29.89,WSW,247,5.6,11.2,67,0.00,,,0.00,Rainwise IP-100,2013-01-05 06:30:00,
2013-01-05 01:35:00,31.2,21.0,29.90,West,270,4.4,13.8,66,0.00,,,0.00,Rainwise IP-100,2013-01-05 06:35:00,
2013-01-05 01:40:00,31.1,21.0,29.90,SSW,202,3.0,12.4,66,0.00,,,0.00,Rainwise IP-100,2013-01-05 06:40:00,
2013-01-05 01:45:00,31.0,21.0,29.90,SW,225,2.1,10.5,67,0.00,,,0.00,Rainwise IP-100,2013-01-05 06:45:00,
2013-01-05 01:50:00,30.8,21.0,29.90,SW,225,6.5,8.2,67,0.00,,,0.00,Rainwise IP-100,2013-01-05 06:50:00,
2013-01-05 01:55:00,30.7,23.0,29.90,SW,225,4.7,8.4,68,0.00,,,0.00,Rainwise IP-100,2013-01-05 06:55:00,
2013-01-05 02:00:00,30.7,23.0,29.91,WSW,247,4.2,9.8,68,0.00,,,0.00,Rainwise IP-100,2013-01-05 07:00:00,
2013-01-05 02:05:00,30.6,23.0,29.91,WSW,247,4.0,7.9,68,0.00,,,0.00,Rainwise IP-100,2013-01-05 07:05:00,
2013-01-05 02:10:00,30.6,23.0,29.91,West,270,5.8,9.8,68,0.00,,,0.00,Rainwise IP-100,2013-01-05 07:10:00,
2013-01-05 02:15:00,30.5,23.0,29.92,West,270,4.7,9.1,68,0.00,,,0.00,Rainwise IP-100,2013-01-05 07:15:00,
2013-01-05 02:20:00,30.4,23.0,29.92,WSW,247,2.3,7.2,68,0.00,,,0.00,Rainwise IP-100,2013-01-05 07:20:00,
2013-01-05 02:25:00,30.5,23.0,29.92,WNW,292,0.0,7.7,68,0.00,,,0.00,Rainwise IP-100,2013-01-05 07:25:00,
2013-01-05 02:30:00,30.4,23.0,29.92,SSW,202,3.7,6.8,68,0.00,,,0.00,Rainwise IP-100,2013-01-05 07:30:00,
2013-01-05 02:35:00,30.3,23.0,29.92,WSW,247,3.0,8.9,68,0.00,,,0.00,Rainwise IP-100,2013-01-05 07:35:00,
2013-01-05 02:40:00,30.4,23.0,29.93,WSW,247,4.9,8.6,68,0.00,,,0.00,Rainwise IP-100,2013-01-05 07:40:00,
2013-01-05 02:45:00,30.4,21.0,29.93,WSW,247,4.2,8.9,67,0.00,,,0.00,Rainwise IP-100,2013-01-05 07:45:00,
2013-01-05 02:50:00,30.3,21.0,29.93,WSW,247,2.8,10.7,67,0.00,,,0.00,Rainwise IP-100,2013-01-05 07:50:00,
2013-01-05 02:55:00,30.3,21.0,29.93,WSW,247,8.4,8.9,67,0.00,,,0.00,Rainwise IP-100,2013-01-05 07:55:00,
2013-01-05 03:00:00,30.3,21.0,29.93,WNW,292,2.8,10.7,67,0.00,,,0.00,Rainwise IP-100,2013-01-05 08:00:00,
2013-01-05 03:05:00,30.2,21.0,29.94,West,270,3.5,7.5,67,0.00,,,0.00,Rainwise IP-100,2013-01-05 08:05:00,
2013-01-05 03:10:00,30.1,23.0,29.94,WNW,292,3.3,9.1,68,0.00,,,0.00,Rainwise IP-100,2013-01-05 08:10:00,
2013-01-05 03:15:00,30.0,23.0,29.94,WSW,247,2.6,8.2,68,0.00,,,0.00,Rainwise IP-100,2013-01-05 08:15:00,
2013-01-05 03:20:00,30.0,23.0,29.94,WSW,247,5.6,8.2,68,0.00,,,0.00,Rainwise IP-100,2013-01-05 08:20:00,
2013-01-05 03:25:00,30.1,23.0,29.94,SW,225,4.2,9.3,68,0.00,,,0.00,Rainwise IP-100,2013-01-05 08:25:00,
2013-01-05 03:30:00,30.1,23.0,29.94,WSW,247,3.3,7.5,68,0.00,,,0.00,Rainwise IP-100,2013-01-05 08:30:00,
2013-01-05 03:35:00,29.9,23.0,29.94,West,270,5.1,8.9,68,0.00,,,0.00,Rainwise IP-100,2013-01-05 08:35:00,
2013-01-05 03:40:00,29.8,23.0,29.95,WSW,247,4.0,8.9,68,0.00,,,0.00,Rainwise IP-100,2013-01-05 08:40:00,
2013-01-05 03:45:00,29.8,23.0,29.95,West,270,4.0,8.4,68,0.00,,,0.00,Rainwise IP-100,2013-01-05 08:45:00,
2013-01-05 03:50:00,29.9,23.0,29.95,WSW,247,5.4,8.6,68,0.00,,,0.00,Rainwise IP-100,2013-01-05 08:50:00,
2013-01-05 03:55:00,30.0,23.0,29.95,WSW,247,2.1,8.6,68,0.00,,,0.00,Rainwise IP-100,2013-01-05 08:55:00,
2013-01-05 03:59:00,30.0,23.0,29.95,West,270,6.5,8.6,68,0.00,,,0.00,Rainwise IP-100,2013-01-05 08:59:00,
2013-01-05 04:00:00,29.9,23.0,29.95,WSW,247,3.3,8.6,68,0.00,,,0.00,Rainwise IP-100,2013-01-05 09:00:00,
2013-01-05 04:06:00,29.9,23.0,29.95,WNW,292,6.1,8.4,68,0.00,,,0.00,Rainwise IP-100,2013-01-05 09:06:00,
2013-01-05 04:11:00,29.9,23.0,29.96,WSW,247,2.6,8.2,68,0.00,,,0.00,Rainwise IP-100,2013-01-05 09:11:00,
2013-01-05 04:16:00,29.9,23.0,29.95,WSW,247,4.2,9.6,68,0.00,,,0.00,Rainwise IP-100,2013-01-05 09:16:00,
2013-01-05 04:21:00,30.0,23.0,29.97,WSW,247,6.8,7.9,68,0.00,,,0.00,Rainwise IP-100,2013-01-05 09:21:00,
2013-01-05 04:26:00,30.3,23.0,29.96,WSW,247,3.3,9.3,68,0.00,,,0.00,Rainwise IP-100,2013-01-05 09:26:00,
2013-01-05 04:31:00,30.2,23.0,29.96,SW,225,6.5,8.6,68,0.00,,,0.00,Rainwise IP-100,2013-01-05 09:31:00,
2013-01-05 04:36:00,30.1,23.0,29.96,WSW,247,6.8,10.7,68,0.00,,,0.00,Rainwise IP-100,2013-01-05 09:36:00,
2013-01-05 04:41:00,30.1,23.0,29.96,SW,225,9.3,10.7,68,0.00,,,0.00,Rainwise IP-100,2013-01-05 09:41:00,
2013-01-05 04:46:00,30.2,23.0,29.95,WSW,247,4.7,12.4,68,0.00,,,0.00,Rainwise IP-100,2013-01-05 09:46:00,
2013-01-05 04:51:00,30.3,23.0,29.96,West,270,7.0,11.9,68,0.00,,,0.00,Rainwise IP-100,2013-01-05 09:51:00,
2013-01-05 04:56:00,30.5,23.0,29.96,West,270,4.0,11.4,69,0.00,,,0.00,Rainwise IP-100,2013-01-05 09:56:00,
2013-01-05 05:01:00,30.7,23.0,29.96,WSW,247,6.5,10.5,69,0.00,,,0.00,Rainwise IP-100,2013-01-05 10:01:00,
2013-01-05 05:06:00,31.0,23.0,29.96,SSW,202,4.0,8.6,68,0.00,,,0.00,Rainwise IP-100,2013-01-05 10:06:00,
2013-01-05 05:11:00,31.1,23.0,29.97,WSW,247,1.2,10.0,68,0.00,,,0.00,Rainwise IP-100,2013-01-05 10:11:00,
2013-01-05 05:16:00,31.1,23.0,29.98,SW,225,5.6,10.3,68,0.00,,,0.00,Rainwise IP-100,2013-01-05 10:16:00,
2013-01-05 05:21:00,31.0,23.0,29.98,WSW,247,3.7,10.7,68,0.00,,,0.00,Rainwise IP-100,2013-01-05 10:21:00,
2013-01-05 05:26:00,31.1,23.0,29.98,WSW,247,2.3,10.7,68,0.00,,,0.00,Rainwise IP-100,2013-01-05 10:26:00,
2013-01-05 05:31:00,31.3,23.0,29.98,WSW,247,4.9,10.7,68,0.00,,,0.00,Rainwise IP-100,2013-01-05 10:31:00,
2013-01-05 05:36:00,31.4,23.0,29.99,West,270,7.2,11.7,68,0.00,,,0.00,Rainwise IP-100,2013-01-05 10:36:00,
2013-01-05 05:41:00,31.7,23.0,30.00,West,270,3.5,10.5,67,0.00,,,0.00,Rainwise IP-100,2013-01-05 10:41:00,
2013-01-05 05:46:00,31.9,23.0,29.99,SW,225,5.1,9.1,67,0.00,,,0.00,Rainwise IP-100,2013-01-05 10:46:00,
2013-01-05 05:51:00,31.9,23.0,30.00,SW,225,4.7,10.0,67,0.00,,,0.00,Rainwise IP-100,2013-01-05 10:51:00,
2013-01-05 05:56:00,31.9,23.0,30.00,SSW,202,6.5,10.0,67,0.00,,,0.00,Rainwise IP-100,2013-01-05 10:56:00,
2013-01-05 06:01:00,32.0,23.0,29.99,WSW,247,3.7,12.6,66,0.00,,,0.00,Rainwise IP-100,2013-01-05 11:01:00,
2013-01-05 06:06:00,32.0,23.0,30.00,WSW,247,3.0,7.2,66,0.00,,,0.00,Rainwise IP-100,2013-01-05 11:06:00,
2013-01-05 06:11:00,31.9,23.0,30.00,SW,225,6.8,10.0,66,0.00,,,0.00,Rainwise IP-100,2013-01-05 11:11:00,
2013-01-05 06:16:00,32.0,23.0,30.01,WSW,247,4.2,11.2,66,0.00,,,0.00,Rainwise IP-100,2013-01-05 11:16:00,
2013-01-05 06:21:00,31.9,23.0,30.01,WSW,247,4.0,8.4,66,0.00,,,0.00,Rainwise IP-100,2013-01-05 11:21:00,
2013-01-05 06:26:00,31.9,23.0,30.01,WSW,247,8.2,10.0,66,0.00,,,0.00,Rainwise IP-100,2013-01-05 11:26:00,
2013-01-05 06:31:00,32.1,23.0,30.02,WNW,292,8.9,10.5,67,0.00,,,0.00,Rainwise IP-100,2013-01-05 11:31:00,
2013-01-05 06:36:00,32.3,23.0,30.02,WSW,247,5.8,12.1,66,0.00,,,0.00,Rainwise IP-100,2013-01-05 11:36:00,
2013-01-05 06:41:00,32.6,24.0,30.02,WSW,247,5.8,14.7,66,0.00,,,0.00,Rainwise IP-100,2013-01-05 11:41:00,
2013-01-05 06:46:00,32.7,24.0,30.03,WSW,247,5.8,10.7,66,0.00,,,0.00,Rainwise IP-100,2013-01-05 11:46:00,
2013-01-05 06:51:00,32.8,24.0,30.03,SW,225,3.7,15.2,66,0.00,,,0.00,Rainwise IP-100,2013-01-05 11:51:00,
2013-01-05 06:56:00,32.9,24.0,30.04,WSW,247,7.0,12.8,66,0.00,,,0.00,Rainwise IP-100,2013-01-05 11:56:00,
2013-01-05 07:01:00,33.0,23.0,30.04,SW,225,6.1,13.1,65,0.00,,,0.00,Rainwise IP-100,2013-01-05 12:01:00,
2013-01-05 07:06:00,33.1,23.0,30.04,WSW,247,6.1,12.4,65,0.00,,,0.00,Rainwise IP-100,2013-01-05 12:06:00,
2013-01-05 07:11:00,33.0,23.0,30.04,WSW,247,4.7,11.7,65,0.00,,,0.00,Rainwise IP-100,2013-01-05 12:11:00,
2013-01-05 07:16:00,32.9,23.0,30.04,WSW,247,9.3,13.5,65,0.00,,,0.00,Rainwise IP-100,2013-01-05 12:16:00,
2013-01-05 07:21:00,32.8,23.0,30.05,West,270,3.3,12.4,65,0.00,,,0.00,Rainwise IP-100,2013-01-05 12:21:00,
2013-01-05 07:26:00,32.7,23.0,30.05,SW,225,3.7,11.4,65,0.00,,,0.00,Rainwise IP-100,2013-01-05 12:26:00,
2013-01-05 07:31:00,32.5,23.0,30.06,WSW,247,8.2,10.3,65,0.00,,,0.00,Rainwise IP-100,2013-01-05 12:31:00,
2013-01-05 07:36:00,32.4,23.0,30.06,WSW,247,8.9,12.1,66,0.00,,,0.00,Rainwise IP-100,2013-01-05 12:36:00,
2013-01-05 07:41:00,32.4,23.0,30.06,WSW,247,3.7,11.7,66,0.00,,,0.00,Rainwise IP-100,2013-01-05 12:41:00,
2013-01-05 07:46:00,32.4,23.0,30.06,SW,225,6.5,10.5,66,0.00,,,0.00,Rainwise IP-100,2013-01-05 12:46:00,
2013-01-05 07:51:00,32.4,23.0,30.07,WSW,247,10.7,10.7,66,0.00,,,0.00,Rainwise IP-100,2013-01-05 12:51:00,
2013-01-05 07:56:00,32.7,24.0,30.07,WNW,292,3.7,15.4,66,0.00,,,0.00,Rainwise IP-100,2013-01-05 12:56:00,
2013-01-05 08:01:00,33.0,24.0,30.08,WSW,247,7.5,13.1,66,0.00,,,0.00,Rainwise IP-100,2013-01-05 13:01:00,
2013-01-05 08:06:00,33.1,24.0,30.08,WSW,247,7.2,11.9,66,0.00,,,0.00,Rainwise IP-100,2013-01-05 13:06:00,
2013-01-05 08:11:00,33.2,24.0,30.08,SW,225,2.3,12.8,66,0.00,,,0.00,Rainwise IP-100,2013-01-05 13:11:00,
2013-01-05 08:16:00,33.4,24.0,30.08,WSW,247,8.4,10.7,66,0.00,,,0.00,Rainwise IP-100,2013-01-05 13:16:00,
2013-01-05 08:21:00,33.6,24.0,30.08,SW,225,8.6,14.7,65,0.00,,,0.00,Rainwise IP-100,2013-01-05 13:21:00,
2013-01-05 08:26:00,33.9,24.0,30.09,WSW,247,7.2,11.0,65,0.00,,,0.00,Rainwise IP-100,2013-01-05 13:26:00,
2013-01-05 08:31:00,34.2,24.0,30.09,WSW,247,6.3,13.5,64,0.00,,,0.00,Rainwise IP-100,2013-01-05 13:31:00,
2013-01-05 08:36:00,34.5,24.0,30.08,West,270,4.9,14.0,64,0.00,,,0.00,Rainwise IP-100,2013-01-05 13:36:00,
2013-01-05 08:41:00,34.7,24.0,30.09,West,270,4.2,12.6,63,0.00,,,0.00,Rainwise IP-100,2013-01-05 13:41:00,
2013-01-05 08:46:00,34.8,24.0,30.10,WSW,247,9.6,11.4,63,0.00,,,0.00,Rainwise IP-100,2013-01-05 13:46:00,
2013-01-05 08:51:00,35.1,23.0,30.10,WSW,247,9.6,11.7,62,0.00,,,0.00,Rainwise IP-100,2013-01-05 13:51:00,
2013-01-05 08:56:00,35.4,23.0,30.10,WSW,247,3.3,14.0,62,0.00,,,0.00,Rainwise IP-100,2013-01-05 13:56:00,
2013-01-05 09:01:00,35.6,24.0,30.11,WSW,247,2.8,11.4,62,0.00,,,0.00,Rainwise IP-100,2013-01-05 14:01:00,
2013-01-05 09:06:00,35.8,24.0,30.11,West,270,7.5,13.1,62,0.00,,,0.00,Rainwise IP-100,2013-01-05 14:06:00,
2013-01-05 09:11:00,36.0,24.0,30.12,SW,225,6.1,9.3,61,0.00,,,0.00,Rainwise IP-100,2013-01-05 14:11:00,
2013-01-05 09:16:00,36.2,24.0,30.12,WSW,247,9.8,12.1,61,0.00,,,0.00,Rainwise IP-100,2013-01-05 14:16:00,
2013-01-05 09:21:00,36.3,24.0,30.12,WSW,247,4.7,12.8,60,0.00,,,0.00,Rainwise IP-100,2013-01-05 14:21:00,
2013-01-05 09:26:00,36.5,24.0,30.13,WNW,292,8.6,11.0,60,0.00,,,0.00,Rainwise IP-100,2013-01-05 14:26:00,
2013-01-05 09:31:00,36.7,24.0,30.13,WSW,247,5.8,11.4,59,0.00,,,0.00,Rainwise IP-100,2013-01-05 14:31:00,
2013-01-05 09:36:00,36.9,24.0,30.13,West,270,4.9,12.6,59,0.00,,,0.00,Rainwise IP-100,2013-01-05 14:36:00,
2013-01-05 09:41:00,37.0,24.0,30.14,WSW,247,5.4,15.2,59,0.00,,,0.00,Rainwise IP-100,2013-01-05 14:41:00,
2013-01-05 09:46:00,37.2,24.0,30.13,NW,315,7.7,13.3,59,0.00,,,0.00,Rainwise IP-100,2013-01-05 14:46:00,
2013-01-05 09:51:00,37.3,24.0,30.14,West,270,15.9,15.9,58,0.00,,,0.00,Rainwise IP-100,2013-01-05 14:51:00,
2013-01-05 09:56:00,37.4,24.0,30.14,WSW,247,9.3,16.1,58,0.00,,,0.00,Rainwise IP-100,2013-01-05 14:56:00,
2013-01-05 10:01:00,37.5,24.0,30.14,WSW,247,4.9,13.1,57,0.00,,,0.00,Rainwise IP-100,2013-01-05 15:01:00,
2013-01-05 10:06:00,37.7,24.0,30.14,WSW,247,7.9,13.5,57,0.00,,,0.00,Rainwise IP-100,2013-01-05 15:06:00,
2013-01-05 10:11:00,37.9,24.0,30.14,West,270,5.8,14.2,57,0.00,,,0.00,Rainwise IP-100,2013-01-05 15:11:00,
2013-01-05 10:16:00,38.1,24.0,30.13,WSW,247,12.6,12.6,56,0.00,,,0.00,Rainwise IP-100,2013-01-05 15:16:00,
2013-01-05 10:21:00,38.1,24.0,30.14,West,270,1.4,14.9,56,0.00,,,0.00,Rainwise IP-100,2013-01-05 15:21:00,
2013-01-05 10:26:00,38.2,24.0,30.13,WNW,292,2.8,12.1,56,0.00,,,0.00,Rainwise IP-100,2013-01-05 15:26:00,
2013-01-05 10:31:00,38.4,24.0,30.13,SW,225,1.9,11.9,55,0.00,,,0.00,Rainwise IP-100,2013-01-05 15:31:00,
2013-01-05 10:36:00,38.5,24.0,30.13,WNW,292,2.6,8.6,55,0.00,,,0.00,Rainwise IP-100,2013-01-05 15:36:00,
2013-01-05 10:41:00,38.8,24.0,30.13,NW,315,3.0,15.6,54,0.00,,,0.00,Rainwise IP-100,2013-01-05 15:41:00,
2013-01-05 10:46:00,38.8,24.0,30.13,NNW,337,4.2,11.4,54,0.06,,,0.01,Rainwise IP-100,2013-01-05 15:46:00,
2013-01-05 10:51:00,38.9,24.0,30.13,SW,225,11.2,13.5,54,0.06,,,0.01,Rainwise IP-100,2013-01-05 15:51:00,
2013-01-05 10:56:00,39.1,24.0,30.13,NW,315,4.0,15.9,54,0.00,,,0.01,Rainwise IP-100,2013-01-05 15:56:00,
2013-01-05 11:01:00,39.6,24.0,30.13,SSW,202,3.3,11.2,53,0.00,,,0.01,Rainwise IP-100,2013-01-05 16:01:00,
2013-01-05 11:06:00,39.9,24.0,30.13,WNW,292,7.2,11.4,52,0.00,,,0.01,Rainwise IP-100,2013-01-05 16:06:00,
2013-01-05 11:11:00,39.5,24.0,30.13,SW,225,4.2,13.1,52,0.00,,,0.01,Rainwise IP-100,2013-01-05 16:11:00,
2013-01-05 11:16:00,39.4,23.0,30.13,WSW,247,5.1,13.3,52,0.00,,,0.01,Rainwise IP-100,2013-01-05 16:16:00,
2013-01-05 11:21:00,39.6,24.0,30.12,NW,315,6.3,13.3,52,0.06,,,0.02,Rainwise IP-100,2013-01-05 16:21:00,
2013-01-05 11:26:00,39.7,24.0,30.13,WSW,247,4.4,10.0,52,0.06,,,0.02,Rainwise IP-100,2013-01-05 16:26:00,
2013-01-05 11:31:00,39.9,24.0,30.13,WSW,247,6.8,12.4,52,0.00,,,0.02,Rainwise IP-100,2013-01-05 16:31:00,
2013-01-05 11:36:00,39.9,24.0,30.13,West,270,3.0,11.7,52,0.00,,,0.02,Rainwise IP-100,2013-01-05 16:36:00,
2013-01-05 11:41:00,39.9,24.0,30.12,WSW,247,8.4,12.1,52,0.00,,,0.02,Rainwise IP-100,2013-01-05 16:41:00,
2013-01-05 11:46:00,40.1,24.0,30.12,West,270,4.9,14.7,52,0.00,,,0.02,Rainwise IP-100,2013-01-05 16:46:00,
2013-01-05 11:51:00,40.1,24.0,30.12,WSW,247,1.4,10.5,52,0.00,,,0.02,Rainwise IP-100,2013-01-05 16:51:00,
2013-01-05 11:56:00,40.2,24.0,30.12,NNW,337,5.1,10.3,52,0.00,,,0.02,Rainwise IP-100,2013-01-05 16:56:00,
2013-01-05 12:01:00,40.5,24.0,30.12,WSW,247,4.9,6.5,51,0.06,,,0.03,Rainwise IP-100,2013-01-05 17:01:00,
2013-01-05 12:06:00,40.7,24.0,30.13,WSW,247,6.8,11.2,51,0.06,,,0.03,Rainwise IP-100,2013-01-05 17:06:00,
2013-01-05 12:11:00,40.6,24.0,30.12,NW,315,8.2,12.8,51,0.00,,,0.03,Rainwise IP-100,2013-01-05 17:11:00,
2013-01-05 12:16:00,40.4,24.0,30.12,NNW,337,2.3,12.1,51,0.00,,,0.03,Rainwise IP-100,2013-01-05 17:16:00,
2013-01-05 12:21:00,40.6,24.0,30.12,WNW,292,5.8,8.4,51,0.00,,,0.03,Rainwise IP-100,2013-01-05 17:21:00,
2013-01-05 12:26:00,40.8,24.0,30.12,NNW,337,8.2,10.3,51,0.00,,,0.03,Rainwise IP-100,2013-01-05 17:26:00,
2013-01-05 12:31:00,40.8,24.0,30.12,NW,315,2.6,13.8,50,0.06,,,0.04,Rainwise IP-100,2013-01-05 17:31:00,
2013-01-05 12:36:00,41.0,24.0,30.12,WSW,247,8.4,9.1,50,0.06,,,0.04,Rainwise IP-100,2013-01-05 17:36:00,
2013-01-05 12:41:00,41.3,24.0,30.13,NW,315,5.6,10.7,49,0.00,,,0.04,Rainwise IP-100,2013-01-05 17:41:00,
2013-01-05 12:46:00,41.4,23.0,30.13,NW,315,2.8,11.9,48,0.00,,,0.04,Rainwise IP-100,2013-01-05 17:46:00,
2013-01-05 12:51:00,41.5,24.0,30.13,West,270,8.4,12.4,47,0.00,,,0.04,Rainwise IP-100,2013-01-05 17:51:00,
2013-01-05 12:56:00,41.5,24.0,30.13,WSW,247,3.7,14.9,47,0.00,,,0.04,Rainwise IP-100,2013-01-05 17:56:00,
2013-01-05 13:01:00,41.6,24.0,30.12,WSW,247,2.6,12.8,47,0.00,,,0.04,Rainwise IP-100,2013-01-05 18:01:00,
2013-01-05 13:06:00,41.8,23.0,30.13,NNW,337,8.6,13.1,46,0.06,,,0.05,Rainwise IP-100,2013-01-05 18:06:00,
2013-01-05 13:11:00,41.7,23.0,30.12,WNW,292,4.0,12.8,46,0.06,,,0.05,Rainwise IP-100,2013-01-05 18:11:00,
2013-01-05 13:16:00,41.6,23.0,30.12,NNW,337,6.1,14.2,46,0.00,,,0.05,Rainwise IP-100,2013-01-05 18:16:00,
2013-01-05 13:21:00,41.6,23.0,30.12,NW,315,6.1,14.9,46,0.00,,,0.05,Rainwise IP-100,2013-01-05 18:21:00,
2013-01-05 13:26:00,41.8,23.0,30.12,NNW,337,8.4,11.4,46,0.00,,,0.05,Rainwise IP-100,2013-01-05 18:26:00,
2013-01-05 13:31:00,41.9,23.0,30.13,NW,315,4.0,13.3,46,0.00,,,0.05,Rainwise IP-100,2013-01-05 18:31:00,
2013-01-05 13:36:00,41.7,23.0,30.13,NW,315,3.3,16.6,45,0.00,,,0.05,Rainwise IP-100,2013-01-05 18:36:00,
2013-01-05 13:41:00,41.8,23.0,30.12,NW,315,2.1,11.9,45,0.00,,,0.05,Rainwise IP-100,2013-01-05 18:41:00,
2013-01-05 13:46:00,42.1,23.0,30.12,NW,315,2.8,12.1,45,0.06,,,0.06,Rainwise IP-100,2013-01-05 18:46:00,
2013-01-05 13:51:00,42.2,23.0,30.12,West,270,7.7,9.3,44,0.06,,,0.06,Rainwise IP-100,2013-01-05 18:51:00,
2013-01-05 13:56:00,42.2,23.0,30.13,NW,315,1.9,9.3,45,0.00,,,0.06,Rainwise IP-100,2013-01-05 18:56:00,
2013-01-05 14:01:00,42.2,23.0,30.13,WSW,247,3.5,9.1,45,0.00,,,0.06,Rainwise IP-100,2013-01-05 19:01:00,
2013-01-05 14:06:00,42.3,23.0,30.14,North,360,7.0,9.6,45,0.00,,,0.06,Rainwise IP-100,2013-01-05 19:06:00,
2013-01-05 14:11:00,42.7,23.0,30.14,NNW,337,3.3,10.5,44,0.00,,,0.06,Rainwise IP-100,2013-01-05 19:11:00,
2013-01-05 14:16:00,43.2,23.0,30.13,NW,315,3.5,7.7,44,0.00,,,0.06,Rainwise IP-100,2013-01-05 19:16:00,
2013-01-05 14:21:00,43.2,23.0,30.13,North,360,4.0,7.9,43,0.00,,,0.06,Rainwise IP-100,2013-01-05 19:21:00,
2013-01-05 14:26:00,42.9,23.0,30.14,West,270,4.4,11.2,43,0.00,,,0.06,Rainwise IP-100,2013-01-05 19:26:00,
2013-01-05 14:31:00,42.9,23.0,30.14,NW,315,2.1,9.1,43,0.00,,,0.06,Rainwise IP-100,2013-01-05 19:31:00,
2013-01-05 14:36:00,42.9,23.0,30.14,NW,315,3.5,5.1,43,0.00,,,0.06,Rainwise IP-100,2013-01-05 19:36:00,
2013-01-05 14:41:00,42.8,23.0,30.14,NNW,337,6.5,6.5,43,0.00,,,0.06,Rainwise IP-100,2013-01-05 19:41:00,
2013-01-05 14:46:00,42.7,23.0,30.15,WNW,292,2.8,9.1,43,0.00,,,0.06,Rainwise IP-100,2013-01-05 19:46:00,
2013-01-05 14:51:00,42.6,23.0,30.15,NNE,22,1.6,7.9,43,0.00,,,0.06,Rainwise IP-100,2013-01-05 19:51:00,
2013-01-05 14:56:00,42.5,23.0,30.15,WNW,292,1.2,7.7,43,0.06,,,0.07,Rainwise IP-100,2013-01-05 19:56:00,
2013-01-05 15:01:00,42.5,23.0,30.16,NNW,337,3.0,6.3,43,0.06,,,0.07,Rainwise IP-100,2013-01-05 20:01:00,
2013-01-05 15:06:00,42.4,23.0,30.16,WNW,292,2.1,8.9,44,0.00,,,0.07,Rainwise IP-100,2013-01-05 20:06:00,
2013-01-05 15:11:00,42.0,23.0,30.16,NNW,337,2.8,5.8,44,0.00,,,0.07,Rainwise IP-100,2013-01-05 20:11:00,
2013-01-05 15:16:00,41.7,23.0,30.16,NW,315,3.5,6.5,44,0.00,,,0.07,Rainwise IP-100,2013-01-05 20:16:00,
2013-01-05 15:21:00,41.4,21.0,30.16,WNW,292,0.0,5.4,44,0.00,,,0.07,Rainwise IP-100,2013-01-05 20:21:00,
2013-01-05 15:26:00,40.9,23.0,30.16,West,270,1.2,4.2,45,0.00,,,0.07,Rainwise IP-100,2013-01-05 20:26:00,
2013-01-05 15:31:00,40.7,23.0,30.16,West,270,0.0,7.2,45,0.00,,,0.07,Rainwise IP-100,2013-01-05 20:31:00,
2013-01-05 15:36:00,40.8,23.0,30.16,WNW,292,0.0,3.5,46,0.00,,,0.07,Rainwise IP-100,2013-01-05 20:36:00,
2013-01-05 15:41:00,40.9,23.0,30.16,NNW,337,0.0,4.0,46,0.00,,,0.07,Rainwise IP-100,2013-01-05 20:41:00,
2013-01-05 15:46:00,41.0,23.0,30.17,WSW,247,3.5,7.7,46,0.00,,,0.07,Rainwise IP-100,2013-01-05 20:46:00,
2013-01-05 15:51:00,40.9,23.0,30.17,WSW,247,2.1,5.1,46,0.00,,,0.07,Rainwise IP-100,2013-01-05 20:51:00,
2013-01-05 15:56:00,40.7,23.0,30.17,WSW,247,1.6,4.4,47,0.00,,,0.07,Rainwise IP-100,2013-01-05 20:56:00,
2013-01-05 16:01:00,40.7,23.0,30.17,WSW,247,4.2,4.2,47,0.00,,,0.07,Rainwise IP-100,2013-01-05 21:01:00,
2013-01-05 16:06:00,40.5,23.0,30.18,WNW,292,0.0,4.7,48,0.00,,,0.07,Rainwise IP-100,2013-01-05 21:06:00,
2013-01-05 16:11:00,40.1,23.0,30.18,West,270,1.4,3.0,48,0.00,,,0.07,Rainwise IP-100,2013-01-05 21:11:00,
2013-01-05 16:16:00,39.7,23.0,30.18,West,270,0.0,2.3,49,0.00,,,0.07,Rainwise IP-100,2013-01-05 21:16:00,
2013-01-05 16:21:00,39.2,23.0,30.18,West,270,0.0,1.4,49,0.00,,,0.07,Rainwise IP-100,2013-01-05 21:21:00,
2013-01-05 16:26:00,38.7,23.0,30.18,West,270,0.0,0.0,50,0.00,,,0.07,Rainwise IP-100,2013-01-05 21:26:00,
2013-01-05 16:31:00,38.1,23.0,30.18,West,270,0.0,0.0,50,0.00,,,0.07,Rainwise IP-100,2013-01-05 21:31:00,
2013-01-05 16:36:00,37.5,23.0,30.18,West,270,1.2,1.2,51,0.00,,,0.07,Rainwise IP-100,2013-01-05 21:36:00,
2013-01-05 16:41:00,37.2,21.0,30.18,West,270,0.0,1.2,52,0.00,,,0.07,Rainwise IP-100,2013-01-05 21:41:00,
2013-01-05 16:46:00,36.7,23.0,30.18,West,270,0.0,0.0,53,0.00,,,0.07,Rainwise IP-100,2013-01-05 21:46:00,
2013-01-05 16:51:00,36.0,21.0,30.19,West,270,0.0,0.0,54,0.00,,,0.07,Rainwise IP-100,2013-01-05 21:51:00,
2013-01-05 16:56:00,35.5,23.0,30.18,West,270,0.0,1.6,55,0.00,,,0.07,Rainwise IP-100,2013-01-05 21:56:00,
2013-01-05 17:01:00,35.5,23.0,30.19,West,270,1.2,2.3,55,0.00,,,0.07,Rainwise IP-100,2013-01-05 22:01:00,
2013-01-05 17:06:00,35.6,23.0,30.19,West,270,0.0,1.2,55,0.00,,,0.07,Rainwise IP-100,2013-01-05 22:06:00,
2013-01-05 17:11:00,35.5,23.0,30.19,West,270,0.0,0.0,55,0.00,,,0.07,Rainwise IP-100,2013-01-05 22:11:00,
2013-01-05 17:16:00,35.1,21.0,30.19,West,270,0.0,0.0,55,0.00,,,0.07,Rainwise IP-100,2013-01-05 22:16:00,
2013-01-05 17:21:00,34.5,21.0,30.19,West,270,0.0,0.0,56,0.00,,,0.07,Rainwise IP-100,2013-01-05 22:21:00,
2013-01-05 17:26:00,34.1,21.0,30.19,West,270,0.0,0.0,57,0.00,,,0.07,Rainwise IP-100,2013-01-05 22:26:00,
2013-01-05 17:31:00,34.1,23.0,30.20,West,270,0.0,0.0,58,0.00,,,0.07,Rainwise IP-100,2013-01-05 22:31:00,
2013-01-05 17:36:00,33.8,23.0,30.20,West,270,0.0,0.0,59,0.00,,,0.07,Rainwise IP-100,2013-01-05 22:36:00,
2013-01-05 17:41:00,33.6,23.0,30.19,West,270,0.0,1.6,59,0.00,,,0.07,Rainwise IP-100,2013-01-05 22:41:00,
2013-01-05 17:46:00,33.8,23.0,30.20,West,270,0.0,0.0,59,0.00,,,0.07,Rainwise IP-100,2013-01-05 22:46:00,
2013-01-05 17:51:00,33.8,23.0,30.20,West,270,0.0,0.0,59,0.00,,,0.07,Rainwise IP-100,2013-01-05 22:51:00,
2013-01-05 17:56:00,33.2,21.0,30.20,West,270,0.0,0.0,60,0.00,,,0.07,Rainwise IP-100,2013-01-05 22:56:00,
2013-01-05 18:01:00,32.8,21.0,30.20,West,270,2.6,2.8,60,0.00,,,0.07,Rainwise IP-100,2013-01-05 23:01:00,
2013-01-05 18:06:00,32.9,23.0,30.21,WSW,247,1.9,3.0,61,0.00,,,0.07,Rainwise IP-100,2013-01-05 23:06:00,
2013-01-05 18:11:00,32.6,23.0,30.21,WSW,247,0.0,2.1,61,0.00,,,0.07,Rainwise IP-100,2013-01-05 23:11:00,
2013-01-05 18:16:00,32.2,21.0,30.21,West,270,0.0,1.6,62,0.00,,,0.07,Rainwise IP-100,2013-01-05 23:16:00,
2013-01-05 18:21:00,32.6,23.0,30.21,WNW,292,0.0,2.1,62,0.00,,,0.07,Rainwise IP-100,2013-01-05 23:21:00,
2013-01-05 18:26:00,33.0,23.0,30.21,WSW,247,1.4,3.7,62,0.00,,,0.07,Rainwise IP-100,2013-01-05 23:26:00,
2013-01-05 18:31:00,33.4,23.0,30.22,West,270,1.6,3.0,62,0.00,,,0.07,Rainwise IP-100,2013-01-05 23:31:00,
2013-01-05 18:36:00,33.4,23.0,30.22,West,270,1.4,2.6,62,0.00,,,0.07,Rainwise IP-100,2013-01-05 23:36:00,
2013-01-05 18:41:00,33.1,23.0,30.22,West,270,0.0,3.0,62,0.00,,,0.07,Rainwise IP-100,2013-01-05 23:41:00,
2013-01-05 18:46:00,32.9,23.0,30.24,WNW,292,0.0,2.6,63,0.00,,,0.07,Rainwise IP-100,2013-01-05 23:46:00,
2013-01-05 18:51:00,32.7,23.0,30.23,WNW,292,0.0,1.2,63,0.00,,,0.07,Rainwise IP-100,2013-01-05 23:51:00,
2013-01-05 18:56:00,32.5,23.0,30.22,WNW,292,0.0,3.0,63,0.00,,,0.07,Rainwise IP-100,2013-01-05 23:56:00,
2013-01-05 19:01:00,32.4,21.0,30.23,NNW,337,0.0,4.4,63,0.00,,,0.07,Rainwise IP-100,2013-01-06 00:01:00,
2013-01-05 19:06:00,32.4,23.0,30.24,NNW,337,0.0,1.4,64,0.00,,,0.07,Rainwise IP-100,2013-01-06 00:06:00,
2013-01-05 19:11:00,32.2,23.0,30.24,West,270,1.4,2.6,64,0.00,,,0.07,Rainwise IP-100,2013-01-06 00:11:00,
2013-01-05 19:16:00,32.0,23.0,30.24,WNW,292,0.0,5.4,65,0.00,,,0.07,Rainwise IP-100,2013-01-06 00:16:00,
2013-01-05 19:21:00,32.1,23.0,30.24,WNW,292,0.0,2.3,65,0.00,,,0.07,Rainwise IP-100,2013-01-06 00:21:00,
2013-01-05 19:26:00,32.1,23.0,30.24,NNW,337,1.2,3.7,65,0.00,,,0.07,Rainwise IP-100,2013-01-06 00:26:00,
2013-01-05 19:31:00,32.1,23.0,30.24,WNW,292,0.0,3.0,66,0.00,,,0.07,Rainwise IP-100,2013-01-06 00:31:00,
2013-01-05 19:36:00,32.1,23.0,30.24,West,270,2.1,2.6,65,0.00,,,0.07,Rainwise IP-100,2013-01-06 00:36:00,
2013-01-05 19:41:00,32.2,23.0,30.24,NNW,337,0.0,3.7,65,0.00,,,0.07,Rainwise IP-100,2013-01-06 00:41:00,
2013-01-05 19:46:00,32.4,23.0,30.23,NW,315,0.0,5.1,65,0.00,,,0.07,Rainwise IP-100,2013-01-06 00:46:00,
2013-01-05 19:51:00,32.4,23.0,30.24,NW,315,0.0,2.8,65,0.00,,,0.07,Rainwise IP-100,2013-01-06 00:51:00,
2013-01-05 19:56:00,32.2,23.0,30.25,West,270,1.6,3.5,65,0.00,,,0.07,Rainwise IP-100,2013-01-06 00:56:00,
2013-01-05 20:01:00,32.1,23.0,30.23,NNW,337,1.2,6.5,65,0.00,,,0.07,Rainwise IP-100,2013-01-06 01:01:00,
2013-01-05 20:06:00,32.1,23.0,30.24,WNW,292,1.2,3.5,64,0.00,,,0.07,Rainwise IP-100,2013-01-06 01:06:00,
2013-01-05 20:11:00,32.1,23.0,30.23,WNW,292,0.0,1.2,64,0.00,,,0.07,Rainwise IP-100,2013-01-06 01:11:00,
2013-01-05 20:16:00,31.8,23.0,30.23,WNW,292,0.0,1.2,64,0.00,,,0.07,Rainwise IP-100,2013-01-06 01:16:00,
2013-01-05 20:21:00,31.7,23.0,30.23,NNW,337,0.0,3.3,64,0.00,,,0.07,Rainwise IP-100,2013-01-06 01:21:00,
2013-01-05 20:26:00,31.8,23.0,30.23,NW,315,1.6,3.3,64,0.00,,,0.07,Rainwise IP-100,2013-01-06 01:26:00,
2013-01-05 20:31:00,31.6,23.0,30.22,NW,315,0.0,3.3,64,0.00,,,0.07,Rainwise IP-100,2013-01-06 01:31:00,
2013-01-05 20:36:00,31.1,21.0,30.20,NNW,337,1.2,3.0,64,0.00,,,0.07,Rainwise IP-100,2013-01-06 01:36:00,
2013-01-05 20:41:00,30.5,21.0,30.21,NNW,337,0.0,3.3,66,0.00,,,0.07,Rainwise IP-100,2013-01-06 01:41:00,
2013-01-05 20:46:00,30.4,21.0,30.22,NNW,337,2.6,2.6,66,0.00,,,0.07,Rainwise IP-100,2013-01-06 01:46:00,
2013-01-05 20:51:00,31.1,21.0,30.23,NNW,337,0.0,3.0,65,0.00,,,0.07,Rainwise IP-100,2013-01-06 01:51:00,
2013-01-05 20:56:00,31.4,21.0,30.22,NNW,337,0.0,3.3,65,0.00,,,0.07,Rainwise IP-100,2013-01-06 01:56:00,
2013-01-05 21:01:00,31.2,21.0,30.22,NNW,337,0.0,1.4,65,0.00,,,0.07,Rainwise IP-100,2013-01-06 02:01:00,
2013-01-05 21:06:00,30.8,21.0,30.22,NNW,337,1.9,1.9,65,0.00,,,0.07,Rainwise IP-100,2013-01-06 02:06:00,
2013-01-05 21:11:00,30.3,21.0,30.22,NNW,337,0.0,3.0,66,0.00,,,0.07,Rainwise IP-100,2013-01-06 02:11:00,
2013-01-05 21:16:00,30.0,21.0,30.21,NNW,337,0.0,5.1,66,0.00,,,0.07,Rainwise IP-100,2013-01-06 02:16:00,
2013-01-05 21:21:00,30.2,21.0,30.21,NNW,337,1.6,4.2,67,0.00,,,0.07,Rainwise IP-100,2013-01-06 02:21:00,
2013-01-05 21:26:00,30.7,21.0,30.21,NNW,337,2.6,3.7,66,0.00,,,0.07,Rainwise IP-100,2013-01-06 02:26:00,
2013-01-05 21:31:00,31.2,21.0,30.21,NW,315,0.0,4.0,65,0.00,,,0.07,Rainwise IP-100,2013-01-06 02:31:00,
2013-01-05 21:36:00,31.3,21.0,30.22,NW,315,1.4,3.3,64,0.00,,,0.07,Rainwise IP-100,2013-01-06 02:36:00,
2013-01-05 21:41:00,30.9,21.0,30.22,WNW,292,1.4,2.6,65,0.00,,,0.07,Rainwise IP-100,2013-01-06 02:41:00,
2013-01-05 21:46:00,30.5,21.0,30.23,WNW,292,1.6,1.9,65,0.00,,,0.07,Rainwise IP-100,2013-01-06 02:46:00,
2013-01-05 21:51:00,30.0,21.0,30.22,West,270,2.1,3.0,65,0.00,,,0.07,Rainwise IP-100,2013-01-06 02:51:00,
2013-01-05 21:56:00,29.2,21.0,30.23,West,270,0.0,2.3,67,0.00,,,0.07,Rainwise IP-100,2013-01-06 02:56:00,
2013-01-05 22:01:00,28.9,21.0,30.22,WNW,292,0.0,3.0,68,0.00,,,0.07,Rainwise IP-100,2013-01-06 03:01:00,
2013-01-05 22:06:00,29.0,21.0,30.23,West,270,0.0,1.6,69,0.00,,,0.07,Rainwise IP-100,2013-01-06 03:06:00,
2013-01-05 22:11:00,28.9,21.0,30.23,NNW,337,1.9,3.5,70,0.00,,,0.07,Rainwise IP-100,2013-01-06 03:11:00,
2013-01-05 22:16:00,29.1,21.0,30.22,NNW,337,0.0,3.7,69,0.00,,,0.07,Rainwise IP-100,2013-01-06 03:16:00,
2013-01-05 22:21:00,29.1,21.0,30.22,WNW,292,2.1,2.8,69,0.00,,,0.07,Rainwise IP-100,2013-01-06 03:21:00,
2013-01-05 22:26:00,29.0,21.0,30.23,NW,315,0.0,2.6,69,0.00,,,0.07,Rainwise IP-100,2013-01-06 03:26:00,
2013-01-05 22:31:00,29.1,21.0,30.23,NNW,337,1.9,3.0,69,0.00,,,0.07,Rainwise IP-100,2013-01-06 03:31:00,
2013-01-05 22:36:00,29.3,21.0,30.22,NNW,337,1.4,2.3,68,0.00,,,0.07,Rainwise IP-100,2013-01-06 03:36:00,
2013-01-05 22:41:00,29.4,21.0,30.21,NNW,337,1.9,4.0,68,0.00,,,0.07,Rainwise IP-100,2013-01-06 03:41:00,
2013-01-05 22:46:00,29.7,21.0,30.22,NNW,337,0.0,3.3,66,0.00,,,0.07,Rainwise IP-100,2013-01-06 03:46:00,
2013-01-05 22:51:00,29.5,21.0,30.21,NNW,337,1.9,3.3,66,0.00,,,0.07,Rainwise IP-100,2013-01-06 03:51:00,
2013-01-05 22:56:00,29.1,21.0,30.20,North,360,1.2,4.2,67,0.00,,,0.07,Rainwise IP-100,2013-01-06 03:56:00,
2013-01-05 23:01:00,28.8,21.0,30.21,North,360,2.1,2.1,68,0.00,,,0.07,Rainwise IP-100,2013-01-06 04:01:00,
2013-01-05 23:06:00,28.2,18.0,30.20,North,360,1.4,2.3,68,0.00,,,0.07,Rainwise IP-100,2013-01-06 04:06:00,
2013-01-05 23:11:00,28.0,18.0,30.21,North,360,2.1,2.1,69,0.00,,,0.07,Rainwise IP-100,2013-01-06 04:11:00,
2013-01-05 23:16:00,28.1,18.0,30.21,North,360,0.0,2.1,69,0.00,,,0.07,Rainwise IP-100,2013-01-06 04:16:00,
2013-01-05 23:21:00,27.8,21.0,30.21,North,360,0.0,0.0,70,0.00,,,0.07,Rainwise IP-100,2013-01-06 04:21:00,
2013-01-05 23:26:00,27.1,21.0,30.20,North,360,0.0,1.4,73,0.00,,,0.07,Rainwise IP-100,2013-01-06 04:26:00,
2013-01-05 23:31:00,27.7,21.0,30.20,North,360,0.0,1.4,73,0.00,,,0.07,Rainwise IP-100,2013-01-06 04:31:00,
2013-01-05 23:36:00,28.5,21.0,30.18,North,360,0.0,1.9,70,0.00,,,0.07,Rainwise IP-100,2013-01-06 04:36:00,
2013-01-05 23:41:00,27.8,21.0,30.19,North,360,0.0,1.6,70,0.00,,,0.07,Rainwise IP-100,2013-01-06 04:41:00,
2013-01-05 23:46:00,27.0,21.0,30.18,North,360,0.0,1.4,72,0.00,,,0.07,Rainwise IP-100,2013-01-06 04:46:00,
2013-01-05 23:51:00,27.5,21.0,30.19,WNW,292,1.9,3.3,72,0.00,,,0.07,Rainwise IP-100,2013-01-06 04:51:00,
2013-01-05 23:56:00,28.2,21.0,30.19,WNW,292,0.0,2.3,70,0.00,,,0.07,Rainwise IP-100,2013-01-06 04:56:00,